GW7213 Weather Reports


time (UTC)temp
F
wind
direction
speed
knots
gust
knots
rain 1hr
in
rain 24hr
in
rain mn
in
humidity
%
barometer
mb
20260510030756 55 0.0 0.0 0.00 0.00 0.00 84 1009.9
20260510030255 55 0.0 0.0 0.00 0.00 0.00 84 1009.9
20260510025755 54 0.0 0.0 0.00 0.00 0.00 84 1009.9
20260510025255 54 0.0 0.0 0.00 0.00 0.00 84 1009.9
20260510024755 54 0.0 0.0 0.00 0.00 0.00 84 1009.9
20260510024255 54 0.0 0.0 0.00 0.00 0.00 84 1009.9
20260510023755 55 0.0 0.0 0.00 0.00 0.00 83 1010.1
20260510023256 55 0.0 0.0 0.00 0.00 0.00 83 1010.1
20260510022755 55 0.0 0.0 0.00 0.00 0.00 83 1010.1
20260510022255 55 0.0 0.0 0.00 0.00 0.00 83 1010.1
20260510021756 54 0.0 0.0 0.00 0.00 0.00 82 1009.7
20260510021255 54 0.0 0.0 0.00 0.00 0.00 82 1009.7
20260510020755 54 0.0 0.0 0.00 0.00 0.00 82 1009.7
20260510020255 54 0.0 0.0 0.00 0.00 0.00 82 1009.7
20260510015755 54 0.0 0.0 0.00 0.00 0.00 85 1009.7
20260510015255 54 0.0 0.0 0.00 0.00 0.00 85 1009.7
20260510014755 54 0.0 0.0 0.00 0.00 0.00 85 1009.7
20260510014255 54 0.0 0.0 0.00 0.00 0.00 85 1009.7
20260510013755 54 0.0 0.0 0.00 0.00 0.00 84 1009.8
20260510013255 54 0.0 0.0 0.00 0.00 0.00 84 1009.8
20260510012755 54 0.0 0.0 0.00 0.00 0.00 84 1009.8
20260510012255 54 0.0 0.0 0.00 0.00 0.00 84 1009.8
20260510011755 53 0.0 0.0 0.00 0.00 0.00 83 1010.1
20260510011255 53 0.0 0.0 0.00 0.00 0.00 83 1010.1
20260510010755 53 0.0 0.0 0.00 0.00 0.00 83 1010.1
20260510010255 53 0.0 0.0 0.00 0.00 0.00 83 1010.1
20260510005755 53 0.0 0.0 0.00 0.00 0.00 81 1009.9
20260510005255 53 0.0 0.0 0.00 0.00 0.00 81 1009.9
20260510004755 53 0.0 0.0 0.00 0.00 0.00 81 1009.9
20260510004256 53 0.0 0.0 0.00 0.00 0.00 81 1009.9
20260510003756 54 0.0 0.0 0.00 0.00 0.00 79 1009.8
20260510003256 56 0.0 0.0 0.00 0.00 0.00 73 1009.9
20260510002755 58 0.0 0.0 0.00 0.00 0.00 63 1009.4
20260510002255 63 0.0 0.0 0.00 0.00 0.00 50 1008.7
20260510001755 66 0.0 0.0 0.00 0.00 0.00 47 1007.4
20260510001255 66 0.0 0.0 0.00 0.00 0.00 45 1006.7
20260510000755 66 0.0 0.0 0.00 0.00 0.00 45 1006.7
20260510000256 66 0.0 0.0 0.00 0.00 0.00 45 1006.6
20260509235754 66 0.0 0.0 0.00 0.00 0.00 45 1006.4
20260509235256 66 0.0 0.0 0.00 0.00 0.00 45 1006.4
20260509234756 67 0.0 0.0 0.00 0.00 0.00 45 1006.3
20260509234255 67 0.0 0.0 0.00 0.00 0.00 45 1006.2
20260509233756 67 0.0 0.0 0.00 0.00 0.00 45 1006.1
20260509233256 67 0.0 0.0 0.00 0.00 0.00 44 1006.2
20260509232755 67 0.0 0.0 0.00 0.00 0.00 44 1006.1
20260509232255 68 0.0 0.0 0.00 0.00 0.00 43 1005.9
20260509231755 68 0.0 0.0 0.00 0.00 0.00 43 1005.9
20260509231256 73 0.0 0.0 0.00 0.00 0.00 36 1005.4
20260509230755 73 0.0 0.0 0.00 0.00 0.00 36 1005.4
20260509230255 73 0.0 0.0 0.00 0.00 0.00 36 1005.4
20260509225755 73 0.0 0.0 0.00 0.00 0.00 36 1005.4
20260509225256 77 0.0 0.0 0.00 0.00 0.00 33 1005.2
20260509224755 77 0.0 0.0 0.00 0.00 0.00 33 1005.2
20260509224256 77 0.0 0.0 0.00 0.00 0.00 33 1005.2
20260509223754 77 0.0 0.0 0.00 0.00 0.00 33 1005.2
20260509223256 77 0.0 0.0 0.00 0.00 0.00 33 1005.2
20260509222755 77 0.0 0.0 0.00 0.00 0.00 33 1005.2
20260509222256 77 0.0 0.0 0.00 0.00 0.00 34 1005.5
20260509221756 77 0.0 0.0 0.00 0.00 0.00 34 1005.5
20260509221256 77 0.0 0.0 0.00 0.00 0.00 34 1005.5
20260509220755 77 0.0 0.0 0.00 0.00 0.00 34 1005.5
20260509220255 77 0.0 0.0 0.00 0.00 0.00 34 1005.5
20260509215754 77 0.0 0.0 0.00 0.00 0.00 34 1005.5
20260509215255 78 0.0 0.0 0.00 0.00 0.00 32 1005.4
20260509214755 78 0.0 0.0 0.00 0.00 0.00 32 1005.4
20260509214255 78 0.0 0.0 0.00 0.00 0.00 32 1005.4
20260509213755 78 0.0 0.0 0.00 0.00 0.00 32 1005.4
20260509213256 78 0.0 0.0 0.00 0.00 0.00 32 1005.4
20260509212755 78 0.0 0.0 0.00 0.00 0.00 32 1005.4
20260509212256 79 0.0 0.0 0.00 0.00 0.00 33 1005.8
20260509211755 79 0.0 0.0 0.00 0.00 0.00 33 1005.8
20260509211256 79 0.0 0.0 0.00 0.00 0.00 33 1005.8
20260509210756 79 0.0 0.0 0.00 0.00 0.00 33 1005.8
20260509210255 79 0.0 0.0 0.00 0.00 0.00 33 1005.8
20260509205755 79 0.0 0.0 0.00 0.00 0.00 33 1005.8
20260509205255 76 0.0 0.0 0.00 0.00 0.00 36 1006.6
20260509204755 76 0.0 0.0 0.00 0.00 0.00 36 1006.6
20260509204255 76 0.0 0.0 0.00 0.00 0.00 36 1006.6
20260509203755 76 0.0 0.0 0.00 0.00 0.00 36 1006.6
20260509203256 76 0.0 0.0 0.00 0.00 0.00 36 1006.6
20260509202755 76 0.0 0.0 0.00 0.00 0.00 36 1006.6
20260509202256 73 0.0 0.0 0.00 0.00 0.00 40 1007.3
20260509201755 73 0.0 0.0 0.00 0.00 0.00 40 1007.3
20260509201255 73 0.0 0.0 0.00 0.00 0.00 40 1007.3
20260509200755 73 0.0 0.0 0.00 0.00 0.00 40 1007.3
20260509200255 73 0.0 0.0 0.00 0.00 0.00 40 1007.3
20260509195756 73 0.0 0.0 0.00 0.00 0.00 40 1007.3
20260509195255 73 0.0 0.0 0.00 0.00 0.00 41 1007.3
20260509194756 73 0.0 0.0 0.00 0.00 0.00 41 1007.3
20260509194255 73 0.0 0.0 0.00 0.00 0.00 41 1007.3
20260509193756 73 0.0 0.0 0.00 0.00 0.00 41 1007.3
20260509193255 73 0.0 0.0 0.00 0.00 0.00 41 1007.3
20260509192755 73 0.0 0.0 0.00 0.00 0.00 41 1007.3
20260509192255 72 0.0 0.0 0.00 0.00 0.00 45 1007.7
20260509191756 72 0.0 0.0 0.00 0.00 0.00 45 1007.7
20260509191255 72 0.0 0.0 0.00 0.00 0.00 45 1007.7
20260509190755 72 0.0 0.0 0.00 0.00 0.00 45 1007.7
20260509190256 72 0.0 0.0 0.00 0.00 0.00 45 1007.7
20260509185755 72 0.0 0.0 0.00 0.00 0.00 45 1007.7
20260509185256 70 0.0 0.0 0.00 0.00 0.00 48 1007.8
20260509184755 70 0.0 0.0 0.00 0.00 0.00 48 1007.8
20260509184256 70 0.0 0.0 0.00 0.00 0.00 48 1007.8
20260509183755 70 0.0 0.0 0.00 0.00 0.00 48 1007.8
20260509183255 70 0.0 0.0 0.00 0.00 0.00 48 1007.8
20260509182755 70 0.0 0.0 0.00 0.00 0.00 48 1007.8
20260509182254 68 0.0 0.0 0.00 0.00 0.00 50 1008.1
20260509181755 68 0.0 0.0 0.00 0.00 0.00 50 1008.1
20260509181255 68 0.0 0.0 0.00 0.00 0.00 50 1008.1
20260509180755 68 0.0 0.0 0.00 0.00 0.00 50 1008.1
20260509180255 68 0.0 0.0 0.00 0.00 0.00 50 1008.1
20260509175755 68 0.0 0.0 0.00 0.00 0.00 50 1008.1
20260509175255 66 0.0 0.0 0.00 0.00 0.00 59 1008.6
20260509174755 66 0.0 0.0 0.00 0.00 0.00 59 1008.6
20260509174255 66 0.0 0.0 0.00 0.00 0.00 59 1008.6
20260509173756 66 0.0 0.0 0.00 0.00 0.00 59 1008.6
20260509173256 66 0.0 0.0 0.00 0.00 0.00 59 1008.6
20260509172756 66 0.0 0.0 0.00 0.00 0.00 59 1008.6
20260509172255 61 0.0 0.0 0.00 0.00 0.00 65 1009.0
20260509171755 61 0.0 0.0 0.00 0.00 0.00 65 1009.0
20260509171255 61 0.0 0.0 0.00 0.00 0.00 65 1009.0
20260509170756 61 0.0 0.0 0.00 0.00 0.00 65 1009.0
20260509170255 61 0.0 0.0 0.00 0.00 0.00 65 1009.0
20260509165755 61 0.0 0.0 0.00 0.00 0.00 65 1009.0
20260509165255 58 0.0 0.0 0.00 0.00 0.00 76 1009.2
20260509164755 58 0.0 0.0 0.00 0.00 0.00 76 1009.2
20260509164255 58 0.0 0.0 0.00 0.00 0.00 76 1009.2
20260509163755 58 0.0 0.0 0.00 0.00 0.00 76 1009.2
20260509163255 58 0.0 0.0 0.00 0.00 0.00 76 1009.2
20260509162755 58 0.0 0.0 0.00 0.00 0.00 76 1009.2
20260509162255 59 0.0 0.0 0.00 0.00 0.00 71 1008.9
20260509161755 59 0.0 0.0 0.00 0.00 0.00 71 1008.9
20260509161255 59 0.0 0.0 0.00 0.00 0.00 71 1008.9
20260509160755 59 0.0 0.0 0.00 0.00 0.00 71 1008.9
20260509160255 59 0.0 0.0 0.00 0.00 0.00 71 1008.9
20260509155755 59 0.0 0.0 0.00 0.00 0.00 71 1008.9
20260509155255 57 0.0 0.0 0.00 0.00 0.00 77 1009.2
20260509154755 57 0.0 0.0 0.00 0.00 0.00 77 1009.2
20260509154255 57 0.0 0.0 0.00 0.00 0.00 77 1009.2
20260509153755 57 0.0 0.0 0.00 0.00 0.00 77 1009.2
20260509153256 57 0.0 0.0 0.00 0.00 0.00 77 1009.2
20260509152755 57 0.0 0.0 0.00 0.00 0.00 77 1009.2
20260509152255 56 0.0 0.0 0.00 0.00 0.00 79 1009.2
20260509151756 56 0.0 0.0 0.00 0.00 0.00 79 1009.2
20260509151256 56 0.0 0.0 0.00 0.00 0.00 79 1009.2
20260509150755 56 0.0 0.0 0.00 0.00 0.00 79 1009.2
20260509150255 56 0.0 0.0 0.00 0.00 0.00 79 1009.2
20260509145756 56 0.0 0.0 0.00 0.00 0.00 79 1009.2
20260509145255 54 0.0 0.0 0.00 0.00 0.00 82 1009.2
20260509144755 54 0.0 0.0 0.00 0.00 0.00 82 1009.2
20260509144257 54 0.0 0.0 0.00 0.00 0.00 82 1009.2
20260509143755 54 0.0 0.0 0.00 0.00 0.00 82 1009.2
20260509143255 54 0.0 0.0 0.00 0.00 0.00 82 1009.2
20260509142754 54 0.0 0.0 0.00 0.00 0.00 82 1009.2
20260509142255 53 0.0 0.0 0.00 0.00 0.00 84 1009.6
20260509141755 53 0.0 0.0 0.00 0.00 0.00 84 1009.6
20260509141256 53 0.0 0.0 0.00 0.00 0.00 84 1009.6
20260509140755 53 0.0 0.0 0.00 0.00 0.00 84 1009.6
20260509140255 53 0.0 0.0 0.00 0.00 0.00 84 1009.6
20260509135755 53 0.0 0.0 0.00 0.00 0.00 84 1009.6
20260509135255 52 0.0 0.0 0.00 0.00 0.00 84 1009.6
20260509134755 52 0.0 0.0 0.00 0.00 0.00 84 1009.6
20260509134255 52 0.0 0.0 0.00 0.00 0.00 84 1009.6
20260509133755 52 0.0 0.0 0.00 0.00 0.00 84 1009.6
20260509133255 52 0.0 0.0 0.00 0.00 0.00 84 1009.6
20260509132756 52 0.0 0.0 0.00 0.00 0.00 84 1009.6
20260509132255 51 0.0 0.0 0.00 0.00 0.00 85 1009.8
20260509131755 51 0.0 0.0 0.00 0.00 0.00 85 1009.8
20260509131256 51 0.0 0.0 0.00 0.00 0.00 85 1009.8
20260509130755 51 0.0 0.0 0.00 0.00 0.00 85 1009.8
20260509130255 51 0.0 0.0 0.00 0.00 0.00 85 1009.8
20260509125755 51 0.0 0.0 0.00 0.00 0.00 85 1009.8
20260509125256 51 0.0 0.0 0.00 0.00 0.00 86 1009.9
20260509124756 51 0.0 0.0 0.00 0.00 0.00 86 1009.9
20260509124255 51 0.0 0.0 0.00 0.00 0.00 86 1009.9
20260509123756 51 0.0 0.0 0.00 0.00 0.00 86 1009.9
20260509123254 51 0.0 0.0 0.00 0.00 0.00 86 1009.9
20260509122755 51 0.0 0.0 0.00 0.00 0.00 86 1009.9
20260509122255 50 0.0 0.0 0.00 0.00 0.00 86 1009.8
20260509121755 50 0.0 0.0 0.00 0.00 0.00 86 1009.8
20260509121255 50 0.0 0.0 0.00 0.00 0.00 86 1009.8
20260509120755 50 0.0 0.0 0.00 0.00 0.00 86 1009.8
20260509120255 50 0.0 0.0 0.00 0.00 0.00 86 1009.8
20260509115755 50 0.0 0.0 0.00 0.00 0.00 86 1009.8
20260509115255 50 0.0 0.0 0.00 0.00 0.00 86 1009.7
20260509114756 50 0.0 0.0 0.00 0.00 0.00 86 1009.7
20260509114255 50 0.0 0.0 0.00 0.00 0.00 86 1009.7
20260509113755 50 0.0 0.0 0.00 0.00 0.00 86 1009.7
20260509113256 50 0.0 0.0 0.00 0.00 0.00 86 1009.7
20260509112755 50 0.0 0.0 0.00 0.00 0.00 86 1009.7
20260509112255 50 0.0 0.0 0.00 0.00 0.00 86 1009.7
20260509111755 50 0.0 0.0 0.00 0.00 0.00 86 1009.7
20260509111255 50 0.0 0.0 0.00 0.00 0.00 86 1009.7
20260509110756 50 0.0 0.0 0.00 0.00 0.00 86 1009.7
20260509110255 50 0.0 0.0 0.00 0.00 0.00 86 1009.7
20260509105756 50 0.0 0.0 0.00 0.00 0.00 86 1009.7
20260509105256 49 0.0 0.0 0.00 0.00 0.00 86 1009.9
20260509104755 49 0.0 0.0 0.00 0.00 0.00 86 1009.9
20260509104255 49 0.0 0.0 0.00 0.00 0.00 86 1009.9
20260509103755 49 0.0 0.0 0.00 0.00 0.00 86 1009.9
20260509103256 49 0.0 0.0 0.00 0.00 0.00 86 1009.9
20260509102755 49 0.0 0.0 0.00 0.00 0.00 86 1009.9
20260509102255 49 0.0 0.0 0.00 0.00 0.00 86 1010.1
20260509101755 49 0.0 0.0 0.00 0.00 0.00 86 1010.1
20260509101255 49 0.0 0.0 0.00 0.00 0.00 86 1010.1
20260509100756 49 0.0 0.0 0.00 0.00 0.00 86 1010.1
20260509100255 49 0.0 0.0 0.00 0.00 0.00 86 1010.1
20260509095755 49 0.0 0.0 0.00 0.00 0.00 86 1010.1
20260509095256 49 0.0 0.0 0.00 0.00 0.00 86 1010.4
20260509094756 49 0.0 0.0 0.00 0.00 0.00 86 1010.4
20260509094255 49 0.0 0.0 0.00 0.00 0.00 86 1010.4
20260509093756 49 0.0 0.0 0.00 0.00 0.00 86 1010.4
20260509093255 49 0.0 0.0 0.00 0.00 0.00 86 1010.4
20260509092755 49 0.0 0.0 0.00 0.00 0.00 86 1010.4
20260509092255 49 0.0 0.0 0.00 0.00 0.00 85 1010.7
20260509091755 49 0.0 0.0 0.00 0.00 0.00 85 1010.7
20260509091255 49 0.0 0.0 0.00 0.00 0.00 85 1010.7
20260509090755 49 0.0 0.0 0.00 0.00 0.00 85 1010.7
20260509090255 49 0.0 0.0 0.00 0.00 0.00 85 1010.7
20260509085755 49 0.0 0.0 0.00 0.00 0.00 85 1010.7
20260509085256 49 0.0 0.0 0.00 0.00 0.00 85 1010.8
20260509084755 49 0.0 0.0 0.00 0.00 0.00 85 1010.8
20260509084255 49 0.0 0.0 0.00 0.00 0.00 85 1010.8
20260509083754 49 0.0 0.0 0.00 0.00 0.00 85 1010.8
20260509083255 49 0.0 0.0 0.00 0.00 0.00 85 1010.8
20260509082755 49 0.0 0.0 0.00 0.00 0.00 85 1010.8
20260509082255 49 0.0 0.0 0.00 0.00 0.00 85 1010.8
20260509081755 49 0.0 0.0 0.00 0.00 0.00 85 1010.8
20260509081255 49 0.0 0.0 0.00 0.00 0.00 85 1010.8
20260509080756 49 0.0 0.0 0.00 0.00 0.00 85 1010.8
20260509080256 49 0.0 0.0 0.00 0.00 0.00 85 1010.8
20260509075756 49 0.0 0.0 0.00 0.00 0.00 85 1010.8
20260509075256 49 0.0 0.0 0.00 0.00 0.00 85 1010.8
20260509074756 49 0.0 0.0 0.00 0.00 0.00 85 1010.8
20260509074256 49 0.0 0.0 0.00 0.00 0.00 85 1010.8
20260509073755 49 0.0 0.0 0.00 0.00 0.00 85 1010.8
20260509073256 49 0.0 0.0 0.00 0.00 0.00 85 1010.8
20260509072756 49 0.0 0.0 0.00 0.00 0.00 85 1010.8
20260509072255 49 0.0 0.0 0.00 0.00 0.00 85 1011.1
20260509071754 49 0.0 0.0 0.00 0.00 0.00 85 1011.1
20260509071256 49 0.0 0.0 0.00 0.00 0.00 85 1011.1
20260509070755 49 0.0 0.0 0.00 0.00 0.00 85 1011.1
20260509070256 49 0.0 0.0 0.00 0.00 0.00 85 1011.1
20260509065755 49 0.0 0.0 0.00 0.00 0.00 85 1011.1
20260509065255 49 0.0 0.0 0.00 0.00 0.00 85 1011.3
20260509064755 49 0.0 0.0 0.00 0.00 0.00 85 1011.3
20260509064255 49 0.0 0.0 0.00 0.00 0.00 85 1011.3
20260509063756 49 0.0 0.0 0.00 0.00 0.00 85 1011.3
20260509063256 49 0.0 0.0 0.00 0.00 0.00 85 1011.3
20260509062755 49 0.0 0.0 0.00 0.00 0.00 85 1011.3
20260509062255 50 0.0 0.0 0.00 0.00 0.00 85 1011.6
20260509061755 50 0.0 0.0 0.00 0.00 0.00 85 1011.6
20260509061256 50 0.0 0.0 0.00 0.00 0.00 85 1011.6
20260509060755 50 0.0 0.0 0.00 0.00 0.00 85 1011.6
20260509060255 50 0.0 0.0 0.00 0.00 0.00 85 1011.6
20260509055755 50 0.0 0.0 0.00 0.00 0.00 85 1011.6
20260509055256 50 0.0 0.0 0.00 0.00 0.00 85 1012.0
20260509054755 50 0.0 0.0 0.00 0.00 0.00 85 1012.0
20260509054254 50 0.0 0.0 0.00 0.00 0.00 85 1012.0
20260509053756 50 0.0 0.0 0.00 0.00 0.00 85 1012.0
20260509053254 50 0.0 0.0 0.00 0.00 0.00 85 1012.0
20260509052755 50 0.0 0.0 0.00 0.00 0.00 85 1012.0
20260509052255 50 0.0 0.0 0.00 0.00 0.00 85 1012.2
20260509051755 50 0.0 0.0 0.00 0.00 0.00 85 1012.2
20260509051255 50 0.0 0.0 0.00 0.00 0.00 85 1012.2
20260509050756 50 0.0 0.0 0.00 0.00 0.00 85 1012.2
20260509050256 50 0.0 0.0 0.00 0.00 0.00 85 1012.2
20260509045755 50 0.0 0.0 0.00 0.00 0.00 85 1012.2
20260509045254 50 0.0 0.0 0.00 0.00 0.00 85 1012.6
20260509044755 50 0.0 0.0 0.00 0.00 0.00 85 1012.6
20260509044255 50 0.0 0.0 0.00 0.00 0.00 85 1012.6
20260509043756 50 0.0 0.0 0.00 0.00 0.00 85 1012.6
20260509043255 50 0.0 0.0 0.00 0.00 0.00 85 1012.6
20260509042755 50 0.0 0.0 0.00 0.00 0.00 85 1012.6
20260509042255 50 0.0 0.0 0.00 0.00 0.00 85 1012.8
20260509041754 50 0.0 0.0 0.00 0.00 0.00 85 1012.8
20260509041255 50 0.0 0.0 0.00 0.00 0.00 85 1012.8
20260509040756 50 0.0 0.0 0.00 0.00 0.00 85 1012.8
20260509040255 50 0.0 0.0 0.00 0.00 0.00 85 1012.8
20260509035755 50 0.0 0.0 0.00 0.00 0.00 85 1012.8
20260509035255 50 0.0 0.0 0.00 0.00 0.00 85 1013.2
20260509034755 50 0.0 0.0 0.00 0.00 0.00 85 1013.2
20260509034255 50 0.0 0.0 0.00 0.00 0.00 85 1013.2
20260509033755 50 0.0 0.0 0.00 0.00 0.00 85 1013.2
20260509033256 50 0.0 0.0 0.00 0.00 0.00 85 1013.2
20260509032755 50 0.0 0.0 0.00 0.00 0.00 85 1013.2
20260509032255 51 0.0 0.0 0.00 0.00 0.00 85 1013.2
20260509031755 51 0.0 0.0 0.00 0.00 0.00 85 1013.2
20260509031255 51 0.0 0.0 0.00 0.00 0.00 85 1013.2